Volver al catálogo

SL-12 DEB

LostHEO
NORAD 29326·DEBRIS·🇷🇺 Russia

Lanzado May 31, 1989 desde Baikonur Cosmodrome

Loading…

Próximos Pases (próximas 24 horas)

TLE

ObsoletoSource: Space-Track

Época: Jan 16, 2007, 19:12 UTC

1 29326U 89039AH  07016.80009701  .03296854  00000-0  20806+0 0  9992
2 29326 064.9882 203.1841 4886485 061.5622 339.0960 05.87858409  1077

Sigue SL-12 DEB en tiempo real con AllMySat

Download on the App Store